Regional Weather Roundup
Issued by NWS Green Bay, WI

Home | Current Version | Previous Version | Graphics & Text | Print | Product List | Glossary Off
Versions: 1 2 3 4 5 6 7 8 9 10 11 12 13 14 15 16 17 18 19 20 21 22 23 24 25 26 27 28 29 30 31 32 33 34 35 36 37 38 39 40 41 42 43 44 45 46 47 48 49 50

000
ASUS43 KGRB 060510
RWRGRB

NORTH-CENTRAL AND NORTHEAST WISCONSIN REGIONAL WEATHER ROUNDUP
NATIONAL WEATHER SERVICE GREEN BAY WI
1100 PM CST THU MAR 05 2015

WIZ005-009-010>012-018-019-060600-
NORTH CENTRAL WISCONSIN

CITY           SKY/WX    TMP DP  RH WIND       PRES   REMARKS
IRONWOOD       CLEAR      5  -4  66 SW13      30.21F WCI -12
MANITOWISH WTR CLEAR      0 -11  59 SW7       30.24F WCI -13
ARBOR VITAE    CLEAR      1 -10  60 S6        30.25F WCI -10
EAGLE RIVER    PTCLDY     1 -13  53 CALM      30.25F
LAND O LAKES   CLEAR      1 -12  55 SW5       30.24F WCI  -8
RHINELANDER    PTCLDY    -1 -12  59 SW5       30.27F WCI -11
PHILLIPS       PTCLDY     0  -8  68 S5        30.28F WCI -10
ANTIGO         PTCLDY    -4 -12  71 SW3       30.31F
TOMAHAWK       PTCLDY    -3 -12  65 CALM      30.30F
MERRILL        PTCLDY    -2 -10  68 CALM      30.33F
$$

WIZ013-073-060600-
NORTHEAST WISCONSIN

CITY           SKY/WX    TMP DP  RH WIND       PRES   REMARKS
IRON MOUNTAIN  PTCLDY     4 -11  50 SW7       30.28F WCI  -8
MARINETTE      PTCLDY     7  -9  47 W5        30.38F WCI  -2
OCONTO         MOCLDY     1  -9  63 SW3       30.41F
$$

WIZ017-030-035>037-045-060600-
CENTRAL WISCONSIN

CITY           SKY/WX    TMP DP  RH WIND       PRES   REMARKS
MEDFORD        PTCLDY     1  -9  62 SW6       30.31F WCI -10
WAUSAU         PTCLDY     2 -10  57 CALM      30.34F
MOSINEE        PTCLDY     0  -9  65 S5        30.36F WCI -10
MARSHFIELD     PTCLDY     2  -9  60 SW6       30.36F WCI  -9
WISC RAPIDS    PTCLDY     4  -8  57 SW10      30.41F WCI -11
STEVENS POINT  PTCLDY     3  -8  59 SW6       30.39F WCI  -8
WAUPACA        PTCLDY     6  -7  55 SW6       30.42F WCI  -4
SHAWANO        PTCLDY     7  -8  51 SW5       30.41S WCI  -2
CLINTONVILLE   MOCLDY     5  -8  56 SW5       30.41S WCI  -4
$$

WIZ038-039-048-051-060600-
FOX VALLEY

CITY           SKY/WX    TMP DP  RH WIND       PRES   REMARKS
NWS GREEN BAY  MOCLDY     5  -7  57 SW7       30.42F WCI  -7
APPLETON       PTCLDY     9  -8  47 SW9       30.41S WCI  -5
OSHKOSH        PTCLDY     6  -6  57 SW6       30.43F WCI  -4
FOND DU LAC    PTCLDY     6  -4  63 SW8       30.44F WCI  -7
$$

WIZ022-050-052-060600-
EAST CENTRAL WISCONSIN

CITY           SKY/WX    TMP DP  RH WIND       PRES   REMARKS
STURGEON BAY   PTCLDY     7  -9  47 SW8       30.41F WCI  -6
MANITOWOC      PTCLDY     4  -5  66 SW3       30.44F
SHEBOYGAN      MOCLDY     3  -6  66 SW10      30.45F WCI -12
$$

LMZ563-521-522-541>543-060600-
LAKESHORE

STATION/POSITION TIME  TEMP    WIND        PRES    VSBY  WAVE
                       AIR SEA DIR/SP/G                  HT/PER
                 (UTC) (F)     (DEG/KT/KT) (MB)    (MI)  (FT/S)
SHEBOYGAN LKSHOR 0500   10     230/ 10/ 11 1033.3F
KEWAUNEE LKSHORE 0500    7     240/  4/  8 1029.4F
NORTHPORT PIER   0500    9     240/  5/ 11 1028.8F
CHAMBERS ISLAND  0500    6     210/  8/ 12 1028.8F
MENOMINEE LKSHOR 0500    8     220/  9     1029.7F
$$


USA.gov is the U.S. government's official web portal to all federal, state and local government web resources and services.